Regional Weather Roundup
Issued by NWS

Home | Current Version | Previous Version | Text Only | Print | Product List | Glossary On
Versions: 1 2 3 4 5 6 7 8 9 10 11 12 13 14 15 16 17 18 19 20 21 22 23 24 25 26 27 28 29 30 31 32 33 34 35 36 37 38 39 40 41 42 43 44 45 46 47 48 49 50
000
ASUS42 KFFC 222110
RWRGA
WEATHER ROUNDUP FOR GEORGIA
NATIONAL WEATHER SERVICE PEACHTREE CITY GA
500 PM EDT SAT JUL 22 2017

NOTE: "FAIR" INDICATES FEW OR NO CLOUDS BELOW 12,000 FEET WITH NO
SIGNIFICANT WEATHER AND/OR OBSTRUCTIONS TO VISIBILITY.

* = USE WITH CAUTION. THE STATIONS MARKED WITH AN ASTERISK MAY NOT
REPORT WEATHER SUCH AS PRECIPITATION, FOG, OR THUNDER AND ARE NOT
QUALITY CONTROLLED BY NWS.

THE REMARK "TC" DENOTES TEMPERATURE READING IN DEGREES CELSIUS.

GAZ001>058-222200-
NORTH GEORGIA

CITY           SKY/WX    TMP DP  RH WIND       PRES   REMARKS
ATLANTA        CLOUDY    80  73  79 SW8       29.98F
ATHENS         PTSUNNY   95  74  50 VRB6      29.95F HX 105
CHAMBLEE       PTSUNNY   86  68  54 SW5       29.98F
PEACHTREE CITY PTSUNNY   88  74  63 NW18G24   29.98S THUNDER HX  96
ROME           CLOUDY    96  70  42 NW7       29.93F HX 102
WEST ATLANTA   CLOUDY    80  73  79 W3        29.97F
GAINESVILLE    PTSUNNY   81  71  71 SW13G25   30.00S THUNDER
CARTERSVILLE   CLOUDY    82  74  76 S8        29.97F


CITY           SKY/WX    TMP DP  RH WIND       PRES   REMARKS
LAWRENCEVILLE* TSTM      73  70  88 W12       29.99F FOG
MARIETTA       PTSUNNY   76  71  83 CALM      29.98F
KENNESAW*      MOSUNNY   77  75  94 SW6       30.00F
CANTON*        CLOUDY    88  75  66 SW9       30.00S HX  97
$$

GAZ059>098-102>109-222200-
CENTRAL GEORGIA

CITY           SKY/WX    TMP DP  RH WIND       PRES   REMARKS
AUGUSTA-BUSH   PTSUNNY   92  75  57 S6        29.93F HX 103
AUGUSTA-DANIEL MOSUNNY   94  70  45 SW5       29.95F HX 100
COLUMBUS       PTSUNNY   94  72  48 W10       29.95F HX 102
MACON          MOSUNNY   94  72  48 SW7       29.95F HX 102
ROBINS AFB     SUNNY     95  73  49 SW10      29.94F HX 105


CITY           SKY/WX    TMP DP  RH WIND       PRES   REMARKS
LAGRANGE*      SUNNY     93  77  59 W6        29.96F HX 106
SYLVANIA*      MOSUNNY   92  76  58 SW6       29.96S HX 104
MILLEDGEVILLE* SUNNY     93  73  52 W6        29.95F HX 102
$$

GAZ099>101-110>166-222200-
SOUTH GEORGIA

CITY           SKY/WX    TMP DP  RH WIND       PRES   REMARKS
SAVANNAH       MOSUNNY   92  71  50 S12       29.96S HX  98
VALDOSTA       CLOUDY    87  73  62 VRB6      30.00F HX  94
ALMA           SUNNY     93  71  48 SW3       29.97F HX 100
ST SIMONS      SUNNY     89  75  63 S15G25    30.00R HX  99
FT STEWART     PTSUNNY   91  71  52 S7        29.95R HX  98
ALBANY         MOSUNNY   93  74  53 S7        29.98F HX 103
HUNTER AFB     SUNNY     90  77  65 SE13      29.95R HX 103
MOODY AFB      CLOUDY    89  74  61 S13       29.98S HX  97
BRUNSWICK      SUNNY     90  75  62 S17G23    30.00R HX 100


CITY           SKY/WX    TMP DP  RH WIND       PRES   REMARKS
BAINBRIDGE*    CLOUDY    95  77  55 CALM      29.97S HX 109
MOULTRIE*      SUNNY     91  72  52 S5        29.98F HX  98
VIDALIA*       MOSUNNY   93  73  52 SW7       29.97S HX 102
WAYCROSS*      PTSUNNY   94  76  55 S18G28    29.98S HX 107
DOUGLAS*       SUNNY     90  70  51 SW5       29.99S HX  95
$$



USA.gov is the U.S. government's official web portal to all federal, state and local government web resources and services.